www.pogodaiklimat.ru

Погода и климат >> Архив погоды >> Россия >> Ненецкий АО >> Усть-Кара


ПОГОДА в Усть-Каре

  • Прогноз погоды в Усть-Каре
  • Монитор погоды в Усть-Каре

АРХИВ ПОГОДЫ в Усть-Каре

Время (UTC), дата Ветер
(напр.,м/с)
 
Видим.   Явления Облачность Т
(С)
Тd
(С)
f
(%)
Тe
(С)
Тes
(С)
Комфортность P
(гПа)
Po
(гПа)
Тmin
(С)
Tmax
(С)
R
(мм)
R24
(мм)
S
(см)
09 11.02 Ю 7
{10}
4000 м слаб. ливневой снег {метель} 10/8 300 м
[Cb cap Ac trans]
-4.5 -4.5 100 -13 -13 1000.9 1000.5
12 11.02 ЮЗ 5 10 км {ливн. осадки, метель} 10/8 600 м
[Sc Ac trans]
-3.1 -3.1 100 -10 -10 1001.3 1000.9
15 11.02 ЮЗ 7 4000 м слаб. ливневой снег {метель} 10/8 300 м
[Cb cap Ac trans]
-3.0 -3.1 99 -11 -11 1001.7 1001.3 -2.7 0.4
18 11.02 ЮЗ 8-11
{12}
4000 м слаб. ливневой снег {метель} 10/8 300 м
[Cb cap Ac trans]
-2.8 -2.8 100 -11 -11 1001.8 1001.4
21 11.02 ЮЗ 7-11
{11}
10 км позёмок {ливн. осадки} 10/8 600 м
[Sc Ac trans]
-2.9 -3.1 99 -11 -11 1002.1 1001.7
00 12.02 ЮЗ 7-10
{11}
10 км позёмок {ливн. осадки} 10/8 600 м
[Sc Ac trans]
-3.3 -3.3 100 -12 -12 1002.4 1002.0
03 12.02 ЮЗ 8-11
{11}
4000 м слаб. ливневой снег {метель} 10/8 300 м
[Cb cap Ac trans]
-3.9 -3.9 100 -13 -13 1002.8 1002.4 -3.9 0.3 106
06 12.02 ЮЗ 8-11
{13}
2000 м слаб. ливневой снег {метель} 6/6 300 м
[Cb cap]
-4.2 -4.2 100 -13 -13 1003.2 1002.8 -4.2
09 12.02 ЮЗ 9-12
{13}
2000 м слаб. ливневой снег {метель} 9/9 300 м
[Cb cap]
-4.1 -4.2 99 -13 -13 1004.3 1003.9
12 12.02 ЮЗ 8-11
{13}
4000 м слаб. ливневой снег {метель} 9/9 300 м
[Cb cap]
-4.8 -5.1 98 -14 -14 1004.9 1004.5
15 12.02 Ю 7
{13}
4000 м слаб. ливневой снег {метель} 9/9 300 м
[Cb cap]
-5.2 -5.6 97 -14 -14 1005.8 1005.4 -3.9 0.8
18 12.02 Ю 10-13
{14}
2000 м слаб. ливневой снег {метель} 9/9 300 м
[Cb cap]
-5.6 -5.9 98 -16 -16 1005.5 1005.1
21 12.02 Ю 10-14
{15}
2000 м слаб. ливневой снег {метель} 9/9 300 м
[Cb cap]
-6.0 -6.5 96 -16 -16 1005.0 1004.6
00 13.02 Ю 10-13
{14}
2000 м слаб. ливневой снег {метель} 9/9 300 м
[Cb cap]
-5.4 -5.9 96 -15 -15 1003.4 1003.0
06 13.02 Ю 12-15
{16}
1000 м сильная метель {ливн. осадки} 9/9 600 м
[Sc]
-4.1 -4.4 98 -14 -14 1000.5 1000.1
09 13.02 ЮЗ 11-15
{15}
500 м слаб. ливневой снег {метель} 10/10 300 м
[Cb cap]
-4.6 -4.7 99 -15 -15 999.6 999.2
12 13.02 ЮЗ 10-13
{15}
2000 м сильная метель {ливн. осадки} 10/10 300 м
[Sc]
-4.4 -4.6 99 -14 -14 998.6 998.2
15 13.02 ЮЗ 10-13
{15}
1000 м сильная метель {ливн. осадки} 9/6 600 м
[Sc Ac trans]
-4.3 -4.5 99 -14 -14 997.8 997.4 -3.9 0.3
18 13.02 ЮЗ 8-13
{14}
4000 м метель {ливн. осадки} 9/8 600 м
[Sc Ac trans]
-3.4 -3.7 98 -12 -12 998.0 997.6
21 13.02 ЮЗ 6
{13}
10 км позёмок 3/3 600 м
[Sc]
-5.5 -5.8 98 -14 -14 998.4 998.0
00 14.02 ЮЗ 5 10 км {метель} 9/9 600 м
[Sc]
-3.8 -4.2 97 -11 -11 998.0 997.6
03 14.02 СЗ 3 10 км 10/10 600 м
[Sc]
-6.0 -6.1 99 -12 -12 998.2 997.8 -6.0 105
06 14.02 СЗ 6 10 км 10/8 300 м
[St Ac trans]
-9.3 -10.0 95 -18 -18 998.5 998.1 -9.3
09 14.02 С 7-10
{10}
20 км позёмок {ливн. осадки} 9/6 600 м
[Sc Ac trans]
-12.9 -14.1 91 -23 -23 999.6 999.2
12 14.02 С 8-11
{11}
20 км позёмок {ливн. осадки} 9/8 600 м
[Sc Ac trans]
-16.1 -17.5 89 -27 -27 1001.2 1000.8
15 14.02 С 8
{11}
4000 м слаб. ливневой снег {метель} 8/6 300 м
[Cb cap Ac trans]
-15.4 -17.0 88 -26 -26 1003.5 1003.1 -6.0 0.2
18 14.02 СЗ 3 20 км {ливн. осадки, метель} 8/4 600 м
[Sc Ac trans]
-17.1 -18.6 88 -24 -24 1004.6 1004.2
21 14.02 ЮЗ 2 20 км 3/0
[Ac trans]
-19.8 -21.0 90 -26 -26 1005.7 1005.3
00 15.02 Ю 6 20 км 8/8 600 м
[Sc Ac trans]
-21.6 -23.1 88 -33 -33 опасность
обморожения
1006.7 1006.3
03 15.02 ЮЗ 7 20 км позёмок 3/1 600 м
[Sc Ac trans]
-19.3 -20.6 89 -31 -31 опасность
обморожения
1006.5 1006.1 -23.1 0.0 105
06 15.02 Ю 10-13
{14}
4000 м слаб. ливневой снег {метель} 10/10 300 м
[Cb cap]
-16.3 -17.3 92 -29 -29 1005.4 1005.0
09 15.02 ЮЗ 8-10
{14}
20 км сильный позёмок {ливн. осадки} 8/8 930 м
[]
-16.7 -18.0 90 -28 -28 1005.8 1005.4
12 15.02 Ю 9 20 км сильный позёмок {ливн. осадки} ясно -18.5 -20.0 88 -31 -31 опасность
обморожения
1005.5 1005.1
15 15.02 Ю 6
{11}
20 км ясно -17.6 -19.2 87 -28 -28 1004.3 1003.9 -15.4 0.3
18 15.02 Ю 7 20 км позёмок 1/0
[Ci fib]
-16.4 -20.1 73 -27 -27 1002.3 1001.9
06 16.02 Ю 10-13
{14}
10 км позёмок 9/3 600 м
[Sc Ac trans Ci fib]
-14.4 -16.7 83 -26 -26 996.6 996.2
09 16.02 Ю 10-13
{15}
10 км позёмок 9/8 600 м
[Sc Ac trans]
-13.3 -15.4 84 -25 -25 995.4 995.0
12 16.02 Ю 10-14
{14}
500 м слаб. ливневой снег {метель} 10/10 300 м
[Cb cap]
-12.5 -13.3 94 -24 -24 993.4 993.0
15 16.02 Ю 10-14
{15}
500 м слаб. ливневой снег {метель} 9/9 300 м
[Cb cap]
-11.8 -12.5 95 -23 -23 991.1 990.7 -11.8 0.5
18 16.02 ЮЗ 10-13
{15}
1000 м слаб. ливневой снег {метель} 10/10 300 м
[Cb cap]
-11.6 -12.3 95 -23 -23 989.3 988.9
21 16.02 ЮЗ 6
{13}
10 км {ливн. осадки, метель} 9/9 600 м
[Sc]
-10.7 -11.3 95 -19 -19 988.8 988.4
00 17.02 ЮЗ 3 10 км {ливн. осадки, метель} 9/9 600 м
[Sc]
-10.0 -10.5 96 -16 -16 988.7 988.3
03 17.02 Ю 2 10 км 9/9 600 м
[Sc]
-10.9 -11.4 96 -15 -15 988.9 988.5 -11.8 0.3 105
06 17.02 ЮВ 1 10 км 10/8 300 м
[St Ac trans]
-11.2 -11.8 95 -13 -13 989.3 988.9
09 17.02 штиль 0 10 км {ливн. осадки} 10/8 300 м
[St Ac trans]
-12.0 -12.7 95 -12 -12 989.8 989.4
12 17.02 СВ 4 4000 м слаб. ливневой снег 10/8 300 м
[Cb cap Ac trans]
-11.2 -11.7 96 -18 -18 989.9 989.5
15 17.02 Ю 3 10 км {ливн. осадки} 9/6 600 м
[Sc Ac trans]
-13.5 -14.2 94 -20 -20 989.6 989.2 -10.6 0.9
18 17.02 Ю 2 4000 м слаб. ливневой снег 9/8 300 м
[Cb cap Ac trans]
-13.6 -14.4 94 -18 -18 989.1 988.7
21 17.02 Ю 2 10 км {ливн. осадки} 9/6 600 м
[Sc Ac trans]
-14.1 -14.9 94 -19 -19 988.5 988.1
00 18.02 З 1 10 км {ливн. осадки} 9/5 600 м
[Sc Ac trans]
-14.9 -15.7 94 -17 -17 988.1 987.7
03 18.02 С 3 10 км 9/8 600 м
[Sc Ac trans]
-12.4 -13.0 95 -18 -18 987.9 987.5 -18.0 0.2 105
06 18.02 С 5 4000 м слаб. ливневой снег 9/9 300 м
[Cb cap]
-13.6 -14.6 92 -22 -22 989.2 988.8

 

Местоположение метеостанции Усть-Кара (Ненецкий АО, Россия): широта 69.25 долгота 64.93 высота над уровнем моря 3 м.

В архиве по умолчанию представлена погода в Усть-Каре за последнюю неделю. Архивные данные за месяц целиком и за предыдущие месяцы, начиная с января 2011 года, Вы можете получить, выбрав интересующий диапазон дат из раскрывающегося списка и нажав кнопку "Ввод!".


*Определитесь, кто Вы:
робот инопланетянин человек

Внимание! Время в таблицах - всемирное. Для получения местного времени необходимо прибавить поправку, которая равна 3 ч.

Смотрите также архив погоды в соседних городах и на ближайших метеорологических станциях:

Погода в Марресале (Ямало-Ненецкий АО, Россия) (89 км)
Погода в Амдерме (Ненецкий АО, Россия) (139 км)
Погода на Мысе Белый Нос (Ненецкий АО, Россия) (189 км)
Погода в Воркуте (Коми, Россия) (201 км)
Погода в Елецкой (Коми, Россия) (247 км)
Погода в Имени Федорова (Ненецкий АО, Россия) (261 км)
Погода в Харпе (Ямало-Ненецкий АО, Россия) (275 км)
Погода в Варандее (Ненецкий АО, Россия) (279 км)
Погода в Белоярске (Ямало-Ненецкий АО, Россия) (296 км)
Погода в Сеяхе (Ямало-Ненецкий АО, Россия) (310 км)

Пояснения к столбцам:

Ветер - указаны скорость ветра в м/с - средняя за 10 мин, порывы в срок и между сроками (в фигурных скобках) и направление, откуда дует ветер: С - северный, СВ - северо-восточный, В - восточный, ЮВ - юго-восточный, Ю - южный, ЮЗ - юго-западный, З - западный, СЗ - северо-западный.
Видимость - горизонтальная дальность видимости в метрах или километрах. При видимости от 1 до 10 км при отсутствии осадков обычно наблюдается дымка, при ухудшении видимости до 1 км и менее - туман. В сухую погоду видимость может ухудшаться дымом, пылью или мглою.
Явления - указаны атмосферные явления, наблюдавшиеся в срок или в последний час перед сроком; фигурными скобками обозначены явления, наблюдавшиеся между сроками (за 1-3 часа до срока); квадратными скобками обозначены град или гололедные отложения с указанием их диаметра в мм.
Облачность - указаны через наклонную черту общая и нижняя облачность в баллах и высота нижней границы облаков в метрах; квадратными скобками обозначены формы облаков: Ci - перистые, Cs - перисто-слоистые, Cc - перисто-кучевые, Ac - высококучевые, As - высокослоистые, Sc - слоисто-кучевые, Ns - слоисто-дождевые, Cu - кучевые, Cb - кучево-дождевые. Подробнее классификацию облаков см. в Атласе облаков (PDF).
T - Температура воздуха - температура, измеренная на высоте 2 м над землей.
Td - Температура точки росы - температура, при понижении до которой содержащийся в воздухе водяной пар достигнет насыщения.
f - Относительная влажность воздуха - влажноcть воздуха, измеренная на высоте 2 м над землей.
Te - Эффективная температура - температура, которую ощущает одетый по сезону человек в тени. Характеристика душности погоды. При расчете учитывается влияние влажности воздуха и скорости ветра на теплоощущения человека.
Tes - Эффективная температура на солнце - температура, которую ощущает человек, с поправкой на солнечный нагрев. Характеристика знойности погоды. Зависит от высоты солнца над горизонтом, облачности и скорости ветра. Ночью, в пасмурную погоду, а также при ветре 12 м/с и более поправка равна нулю.
P - Атмосферное давление - приведенное к уровню моря атмосферное давление.
Po - Атмосферное давление - измеренное на уровне метеостанции атмосферное давление.
Tmin - Минимальная температура - минимум температуры воздуха на высоте 2 м над землей.
Tmax - Максимальная температура - максимум температуры воздуха на высоте 2 м над землей.
R - Количество осадков - Количество выпавших осадков за период времени, мм. При наведении курсора мыши на число - период времени, за который выпало указанное количество осадков.
R24 - Количество осадков - Количество выпавших осадков за 24 часа, мм.
S - Снежный покров - Высота снежного покрова, см. При наведении курсора мыши на число - состояние снежного покрова и степень покрытия местности в баллах.